2020-068G (46492 NORAD) Tracking and Keplerian Element Data

This shows tracking and keplerian element data for the satellite.

Feedback or suggestion? Click here.




ElementValue
Catalog46492
Name2020-068G
Epoch Orbit421
Epoch Day300.69955721
Epoch Year2020
RAAN233.9328
Inclination97.6683
Eccentricity0.0019099
Argument of Perigee143.8744
Mean Anonmoly216.378
Mean Motion15.03469999
Decay Rate1.781E-05
L11 46492U 20068G 20300.69955721 .00001781 00000-0 13479-3 0 9994
L22 46492 97.6683 233.9328 0019099 143.8744 216.3780 15.03469999 4214

Live tracking and technical data element details for 2020-068G (NORAD 46492). 2020-068G can be tracked NOW for your location showing map with azimuth and elevation plus other details from your city location.

Track the satellite on the map from your city or location and see movement details for azimuth, elevation, latitude, longitude, range, height, and movement on the map or in text.







IsCatalogInMostPopularTable: catalog: 46492, numindb: 5
Update: records affected: 1



GetName: 46492 2020-068G

Hit Count: updated at: Fri, 30 Oct 2020 01:13:36 GMT